• In Italy
  • List of Countries
  • For 7 days
  • Water Temperature
  • Satellite Maps
  • Weather Map
  • Weather Widgets
  • user-avatar
    Login

    Hourly Weather Bali

    Today, 24 September, Sunday

    Time Temperature Precipitation Wind Pressure Humidity
    00:00 +26°C° 0 mm 3 mps 749 mmHg 87%
    01:00 +25°C° 0 mm 3 mps 749 mmHg 88%
    02:00 +25°C° 0 mm 2 mps 748 mmHg 88%
    03:00 +25°C° 0 mm 2 mps 748 mmHg 89%
    04:00 +25°C° 0 mm 2 mps 748 mmHg 89%
    05:00 +25°C° 0 mm 2 mps 748 mmHg 90%
    06:00 +26°C° 0 mm 2 mps 748 mmHg 85%
    07:00 +27°C° 0 mm 2 mps 749 mmHg 81%
    08:00 +28°C° 0 mm 3 mps 749 mmHg 74%
    09:00 +30°C° 0 mm 3 mps 749 mmHg 69%
    10:00 +31°C° 0 mm 3 mps 749 mmHg 64%
    11:00 +33°C° 0 mm 3 mps 749 mmHg 59%
    12:00 +33°C° 0 mm 3 mps 749 mmHg 61%
    13:00 +33°C° 0 mm 3 mps 748 mmHg 62%
    14:00 +33°C° 0 mm 4 mps 747 mmHg 61%
    15:00 +31°C° 0 mm 3 mps 747 mmHg 65%
    16:00 +30°C° 0 mm 3 mps 747 mmHg 69%
    17:00 +29°C° 0 mm 3 mps 747 mmHg 73%
    18:00 +28°C° 0 mm 3 mps 747 mmHg 78%
    19:00 +27°C° 0 mm 3 mps 748 mmHg 83%
    20:00 +27°C° 0 mm 3 mps 748 mmHg 87%
    21:00 +27°C° 0 mm 3 mps 748 mmHg 87%
    22:00 +27°C° 0 mm 3 mps 749 mmHg 87%
    23:00 +27°C° 0 mm 3 mps 749 mmHg 87%

    Tomorrow, 25 September, Monday

    Time Temperature Precipitation Wind Pressure Humidity
    00:00 +26°C° 0 mm 3 mps 748 mmHg 87%
    01:00 +26°C° 0 mm 3 mps 748 mmHg 88%
    02:00 +26°C° 0 mm 3 mps 748 mmHg 88%
    03:00 +26°C° 0 mm 3 mps 748 mmHg 88%
    04:00 +26°C° 0 mm 3 mps 748 mmHg 88%
    05:00 +25°C° 0 mm 2 mps 748 mmHg 88%
    06:00 +26°C° 0 mm 3 mps 748 mmHg 84%
    07:00 +27°C° 0 mm 3 mps 748 mmHg 79%
    08:00 +28°C° 0 mm 3 mps 748 mmHg 75%
    09:00 +29°C° 0 mm 3 mps 748 mmHg 71%
    10:00 +30°C° 0 mm 3 mps 748 mmHg 68%
    11:00 +31°C° 0 mm 3 mps 748 mmHg 64%
    12:00 +30°C° 0 mm 3 mps 748 mmHg 67%
    13:00 +30°C° 0 mm 3 mps 748 mmHg 71%
    14:00 +29°C° 0 mm 3 mps 747 mmHg 74%
    15:00 +29°C° 0.1 mm 3 mps 747 mmHg 77%
    16:00 +28°C° 0.1 mm 3 mps 747 mmHg 80%
    17:00 +28°C° 0.1 mm 3 mps 746 mmHg 83%
    18:00 +27°C° 0.1 mm 3 mps 747 mmHg 86%
    19:00 +27°C° 0.1 mm 3 mps 747 mmHg 88%
    20:00 +27°C° 0.1 mm 3 mps 747 mmHg 90%
    21:00 +27°C° 0.1 mm 3 mps 748 mmHg 91%
    22:00 +26°C° 0.1 mm 3 mps 748 mmHg 91%
    23:00 +26°C° 0.1 mm 3 mps 748 mmHg 92%

    Day after tomorrow, 26 September, Tuesday

    Time Temperature Precipitation Wind Pressure Humidity
    00:00 +26°C° 0.4 mm 3 mps 748 mmHg 92%
    01:00 +26°C° 0.4 mm 3 mps 748 mmHg 92%
    02:00 +26°C° 0.4 mm 3 mps 748 mmHg 91%
    03:00 +26°C° 0.7 mm 3 mps 748 mmHg 92%
    04:00 +26°C° 0.7 mm 2 mps 747 mmHg 92%
    05:00 +26°C° 0.7 mm 2 mps 747 mmHg 93%
    06:00 +27°C° 0.3 mm 2 mps 748 mmHg 89%
    07:00 +28°C° 0.3 mm 2 mps 748 mmHg 85%
    08:00 +29°C° 0.3 mm 3 mps 749 mmHg 81%
    09:00 +30°C° 0.2 mm 3 mps 749 mmHg 76%
    10:00 +31°C° 0.2 mm 3 mps 749 mmHg 71%
    11:00 +33°C° 0.2 mm 3 mps 749 mmHg 66%
    12:00 +33°C° 1 mm 3 mps 749 mmHg 70%
    13:00 +31°C° 1 mm 3 mps 748 mmHg 73%
    14:00 +30°C° 1 mm 4 mps 747 mmHg 77%
    15:00 +30°C° 1.3 mm 4 mps 747 mmHg 80%
    16:00 +29°C° 1.3 mm 4 mps 747 mmHg 83%
    17:00 +28°C° 1.3 mm 4 mps 747 mmHg 87%
    18:00 +28°C° 0.9 mm 3 mps 747 mmHg 89%
    19:00 +27°C° 0.9 mm 3 mps 748 mmHg 91%
    20:00 +26°C° 0.9 mm 3 mps 748 mmHg 93%
    21:00 +26°C° 0.4 mm 3 mps 749 mmHg 93%
    22:00 +26°C° 0.4 mm 3 mps 749 mmHg 93%
    23:00 +26°C° 0.4 mm 3 mps 750 mmHg 93%

    27 September, Wednesday

    Time Temperature Precipitation Wind Pressure Humidity
    00:00 +26°C° 0.4 mm 3 mps 749 mmHg 94%
    01:00 +26°C° 0.4 mm 3 mps 749 mmHg 94%
    02:00 +26°C° 0.4 mm 3 mps 748 mmHg 94%
    03:00 +26°C° 0.1 mm 3 mps 748 mmHg 94%
    04:00 +26°C° 0.1 mm 3 mps 748 mmHg 94%
    05:00 +26°C° 0.1 mm 3 mps 748 mmHg 94%
    06:00 +27°C° 0 mm 3 mps 749 mmHg 91%
    07:00 +27°C° 0 mm 3 mps 749 mmHg 88%
    08:00 +28°C° 0 mm 3 mps 750 mmHg 84%
    09:00 +30°C° 0 mm 4 mps 750 mmHg 75%
    10:00 +33°C° 0 mm 4 mps 750 mmHg 66%
    11:00 +34°C° 0 mm 4 mps 750 mmHg 57%
    12:00 +34°C° 0.1 mm 4 mps 749 mmHg 59%
    13:00 +33°C° 0.1 mm 5 mps 748 mmHg 62%
    14:00 +33°C° 0.1 mm 5 mps 748 mmHg 65%
    15:00 +32°C° 0.1 mm 5 mps 747 mmHg 70%
    16:00 +30°C° 0.1 mm 5 mps 747 mmHg 75%
    17:00 +29°C° 0.1 mm 5 mps 747 mmHg 80%
    18:00 +28°C° 0.1 mm 4 mps 747 mmHg 83%
    19:00 +28°C° 0.1 mm 4 mps 748 mmHg 87%
    20:00 +27°C° 0.1 mm 4 mps 749 mmHg 90%
    21:00 +27°C° 0 mm 4 mps 749 mmHg 90%
    22:00 +27°C° 0 mm 4 mps 749 mmHg 90%
    23:00 +27°C° 0 mm 4 mps 750 mmHg 90%

    28 September, Thursday

    Time Temperature Precipitation Wind Pressure Humidity
    00:00 +27°C° 0.1 mm 4 mps 749 mmHg 90%
    01:00 +27°C° 0.1 mm 4 mps 748 mmHg 91%
    02:00 +27°C° 0.1 mm 3 mps 748 mmHg 91%
    03:00 +26°C° 0.2 mm 3 mps 748 mmHg 91%
    04:00 +26°C° 0.2 mm 3 mps 748 mmHg 91%
    05:00 +26°C° 0.2 mm 3 mps 748 mmHg 91%
    06:00 +27°C° 0.1 mm 3 mps 748 mmHg 87%
    07:00 +28°C° 0.1 mm 3 mps 749 mmHg 84%
    08:00 +29°C° 0.1 mm 3 mps 749 mmHg 80%
    09:00 +30°C° 0 mm 3 mps 749 mmHg 75%
    10:00 +32°C° 0 mm 4 mps 749 mmHg 69%
    11:00 +33°C° 0 mm 4 mps 749 mmHg 64%
    12:00 +33°C° 0 mm 4 mps 748 mmHg 66%
    13:00 +32°C° 0 mm 4 mps 747 mmHg 68%
    14:00 +32°C° 0 mm 4 mps 747 mmHg 71%
    15:00 +30°C° 0 mm 4 mps 747 mmHg 75%
    16:00 +29°C° 0 mm 4 mps 747 mmHg 78%
    17:00 +29°C° 0 mm 4 mps 747 mmHg 82%
    18:00 +28°C° 0 mm 4 mps 747 mmHg 85%
    19:00 +28°C° 0 mm 4 mps 748 mmHg 88%
    20:00 +27°C° 0 mm 4 mps 748 mmHg 90%
    21:00 +27°C° 0.1 mm 4 mps 749 mmHg 90%
    22:00 +27°C° 0.1 mm 4 mps 749 mmHg 90%
    23:00 +27°C° 0.1 mm 4 mps 749 mmHg 89%

    29 September, Friday

    Time Temperature Precipitation Wind Pressure Humidity
    00:00 +27°C° 0.1 mm 3 mps 749 mmHg 90%
    01:00 +26°C° 0.1 mm 3 mps 748 mmHg 90%
    02:00 +26°C° 0.1 mm 3 mps 748 mmHg 90%
    03:00 +26°C° 0.1 mm 3 mps 748 mmHg 90%
    04:00 +26°C° 0.1 mm 3 mps 748 mmHg 90%
    05:00 +26°C° 0.1 mm 3 mps 748 mmHg 90%
    06:00 +27°C° 0.1 mm 3 mps 749 mmHg 86%
    07:00 +28°C° 0.1 mm 3 mps 749 mmHg 83%
    08:00 +28°C° 0.1 mm 3 mps 750 mmHg 79%
    09:00 +29°C° 0.1 mm 3 mps 750 mmHg 75%
    10:00 +30°C° 0.1 mm 3 mps 750 mmHg 72%
    11:00 +32°C° 0.1 mm 4 mps 749 mmHg 68%
    12:00 +30°C° 0.1 mm 4 mps 749 mmHg 71%
    13:00 +30°C° 0.1 mm 4 mps 748 mmHg 74%
    14:00 +29°C° 0.1 mm 4 mps 747 mmHg 76%
    15:00 +29°C° 0 mm 4 mps 747 mmHg 78%
    16:00 +29°C° 0 mm 4 mps 747 mmHg 79%
    17:00 +29°C° 0 mm 4 mps 747 mmHg 80%
    18:00 +28°C° 0.1 mm 4 mps 748 mmHg 83%
    19:00 +27°C° 0.1 mm 4 mps 748 mmHg 86%
    20:00 +27°C° 0.1 mm 4 mps 749 mmHg 89%
    21:00 +27°C° 0.3 mm 4 mps 749 mmHg 89%
    22:00 +27°C° 0.3 mm 4 mps 749 mmHg 90%
    23:00 +26°C° 0.3 mm 3 mps 749 mmHg 90%
    Show more